Location: Honolulu
(21.3069°N, 157.8583°W)
Time: 02:05:41
(UTC-10:00)

Transit 2A Rocket - Pass Details

Date: 13 April 2026
Orbit: 587 x 895 km, 66.7° (Epoch: 18 May)

Event Time Altitude Azimuth Distance (km) Brightness Sun altitude
Exits shadow 03:17:43 11° 357° (N) 2,436 7.8 -39.2°
Drops below altitude 10° 03:17:54 10° 358° (N) 2,493 7.9 -39.1°
Sets 03:20:36 0° 8° (N) 3,393 8.8 -38.6°
